Weather in Arctic Village

United States     68°07′32″N   145°32′41″W
temp.,
°C
wind,
m/s
gust,
m/s
humid.,
%
clouds,
%
prec.,
mm/h
press.,
hPa
HPBL,
m
7 may, fri
fri701:00−11n338837 0.0 102226
04:00−11n3387100 0.0 102230
07:00−7n348598 0.0 101972
10:00−3nne2278100 0.0 1017152
13:00−1ne1181100 0.0 1016233
16:00−1n0191100 0.0 1015227
19:00−1n1297100 0.6 1015173
22:00−2n1199100 1.9 101512
8 may, sat
sat801:00−3se1198100 1.2 101510
04:00−3s1198100 2.3 101633
07:00−4n0098100 0.4 101712
10:00−2ne009360 0.5 1016226
13:00−1sse119087 0.0 1017342
16:00−1se108791 0.0 1018367
19:00−1se118892 0.0 1018187
22:00−3ese1194100 0.0 101910
9 may, sun
sun901:00−3se0094100 0.0 102110
04:00−4n1195100 0.0 102110
07:00−3n1192100 0.0 102151
10:00−1nw008885 0.0 1021217
13:000e009521 0.0 1021224
16:000sse009811 0.0 1022147
19:00−1sse11947 0.0 102210
22:00−6ne119652 0.0 102410
10 may, mon
mon1001:00−9n229876 0.0 102610
04:00−9n2210080 0.0 102619
07:00−6nne229765 0.0 102490
10:00−4nne229249 0.0 1023171
13:00−2nne11879 0.0 1022255
16:00−1e01867 0.0 1021277
19:00−2ese11915 0.0 102110
22:00−7n11945 0.0 102210
11 may, tue
tue1101:00−10n329422 0.0 102419
04:00−11n329320 0.0 102422
07:00−9n23939 0.0 102448
10:00−5n22899 0.0 1022135
13:00−2nne118312 0.0 1021253
16:00−1ene018317 0.0 1021299
19:00−2e009022 0.0 102110
22:00−7n229337 0.0 102310